Content
SEND FEEDBACK

Daily
Averages
Monthly
Summary
United States of America

MARCO, TEXAS


Home > North America > United States > Texas
Elevation: 2000 feet     Latitude: 31 09N     Longitude: 099 35W

WEATHER
 
SELECT A DAY
Number of Records: 211,924;   Date Range: 8/25/05 - 8/25/14
 
SHARE

PRINT THIS DATA

[ ← Previous Day ]
WEATHER ALMANAC - JANUARY 23, 2013
[ Next Day → ]
[ °C ]   °F
Weather ElementAverageHighLow
Temperature60.6 °F78.8 °F (3:15 pm)46.4 °F (3:55 am)
Dewpoint48.3 °F53.6 °F (11:55 pm)42.8 °F (1:15 am)
Humidity67.4 %100 % (8:15 am)36 % (3:15 pm)
Barometer30.22 in30.28 in (9:35 am)30.17 in (4:15 pm)
Wind Speed8.2 mph13.8 mph (12:55 pm)
Weather ElementAverage
Visibility10 mi
Wind DirectionS (175.7 °)

Weather ElementTotal
Precipitation---
Heating Degree Days2.4 (Base 65)
Growing Degree Days12.6 (Base 50)
Averaged from 68 records on January 23, 2013
WEATHER CONDITIONS BREAKOUT
WIND DIRECTION BREAKOUT
WEATHER BY HOUR - JANUARY 23, 2013
[ °C ]   °F
Local TimeTemperatureDewpointHumidityBarometerVisibilityWind DirectionWind SpeedGust SpeedPrecipitationEventsConditions
1:15 AM50.0 °F42.8 °F76 %30.23 in10.0 miSSE (150°)5.8 mphClear
1:35 AM48.2 °F42.8 °F82 %30.23 in10.0 miSSE (150°)6.9 mphClear
1:55 AM50.0 °F42.8 °F76 %30.23 in10.0 miSSE (150°)6.9 mphClear
2:15 AM48.2 °F42.8 °F82 %30.23 in10.0 miSE (140°)4.6 mphClear
2:35 AM48.2 °F42.8 °F82 %30.23 in10.0 miSSE (150°)6.9 mphClear
2:55 AM48.2 °F42.8 °F82 %30.23 in10.0 miSSE (150°)6.9 mphClear
3:15 AM48.2 °F42.8 °F82 %30.23 in10.0 miSSE (150°)5.8 mphClear
3:35 AM48.2 °F42.8 °F82 %30.23 in10.0 miSSE (160°)5.8 mphClear
3:55 AM46.4 °F42.8 °F87 %30.22 in10.0 miSSE (150°)5.8 mphClear
4:15 AM46.4 °F42.8 °F87 %30.22 in10.0 miSSE (160°)3.5 mphClear
4:35 AM46.4 °F42.8 °F87 %30.22 in10.0 miSSE (150°)4.6 mphClear
4:55 AM46.4 °F42.8 °F87 %30.22 in10.0 miSE (140°)4.6 mphClear
5:15 AM46.4 °F42.8 °F87 %30.23 in10.0 miSE (130°)5.8 mphClear
5:35 AM46.4 °F44.6 °F93 %30.23 in10.0 miSSE (150°)8.1 mphClear
5:55 AM46.4 °F44.6 °F93 %30.23 in10.0 miSSE (150°)6.9 mphClear
6:15 AM46.4 °F44.6 °F93 %30.24 in10.0 miSSE (150°)6.9 mphClear
6:35 AM46.4 °F44.6 °F93 %30.24 in10.0 miSSE (150°)5.8 mphClear
6:55 AM46.4 °F44.6 °F93 %30.24 in10.0 miSSE (150°)4.6 mphClear
7:15 AM46.4 °F44.6 °F93 %30.25 in10.0 miSSE (150°)5.8 mphClear
7:35 AM46.4 °F44.6 °F93 %30.25 in10.0 miSSE (160°)6.9 mphClear
7:55 AM46.4 °F44.6 °F93 %30.25 in10.0 miSSE (160°)4.6 mphClear
8:15 AM46.4 °F46.4 °F100 %30.26 in10.0 miSSE (150°)4.6 mphClear
8:35 AM48.2 °F46.4 °F93 %30.26 in10.0 miSSE (160°)5.8 mphClear
8:55 AM50.0 °F46.4 °F87 %30.27 in10.0 miSSE (160°)5.8 mphClear
9:15 AM51.8 °F46.4 °F82 %30.27 in10.0 miSouth (170°)6.9 mphClear
9:35 AM53.6 °F48.2 °F82 %30.28 in10.0 miSouth (180°)6.9 mphClear
9:55 AM59.0 °F50.0 °F72 %30.28 in10.0 miSouth (190°)11.5 mphClear
10:15 AM60.8 °F50.0 °F68 %30.28 in10.0 miSSW (200°)12.7 mphClear
10:35 AM62.6 °F50.0 °F63 %30.28 in10.0 miSouth (180°)12.7 mphClear
10:55 AM64.4 °F51.8 °F64 %30.28 in10.0 miSSW (200°)12.7 mphClear
11:15 AM68.0 °F51.8 °F56 %30.27 in10.0 miSSW (200°)12.7 mphClear
11:35 AM69.8 °F51.8 °F53 %30.27 in10.0 miSouth (180°)11.5 mphClear
11:55 AM69.8 °F51.8 °F53 %30.26 in10.0 miSouth (190°)11.5 mphClear
12:15 PM71.6 °F51.8 °F50 %30.25 in10.0 miSouth (180°)12.7 mphClear
12:35 PM71.6 °F51.8 °F50 %30.24 in10.0 miSSW (210°)10.4 mphClear
12:55 PM71.6 °F51.8 °F50 %30.23 in10.0 miSouth (190°)13.8 mphClear
1:15 PM73.4 °F51.8 °F47 %30.22 in10.0 miSouth (190°)11.5 mphClear
1:35 PM75.2 °F51.8 °F44 %30.21 in10.0 miSSW (200°)9.2 mphClear
1:55 PM75.2 °F51.8 °F44 %30.20 in10.0 miSW (220°)11.5 mphClear
2:15 PM75.2 °F51.8 °F44 %30.19 in10.0 miSSW (210°)9.2 mphClear
2:35 PM75.2 °F51.8 °F44 %30.19 in10.0 miSouth (190°)11.5 mphClear
2:55 PM77.0 °F51.8 °F41 %30.19 in10.0 miSouth (180°)10.4 mphClear
3:15 PM78.8 °F50.0 °F36 %30.19 in10.0 miSSW (200°)10.4 mphClear
3:35 PM78.8 °F50.0 °F36 %30.18 in10.0 miSSW (210°)11.5 mphClear
3:55 PM78.8 °F50.0 °F36 %30.18 in10.0 miSouth (190°)11.5 mphClear
4:15 PM78.8 °F50.0 °F36 %30.17 in10.0 miSouth (190°)9.2 mphClear
4:35 PM78.8 °F50.0 °F36 %30.17 in10.0 miSouth (190°)9.2 mphClear
4:55 PM77.0 °F48.2 °F36 %30.17 in10.0 miSouth (190°)11.5 mphClear
5:15 PM75.2 °F48.2 °F38 %30.17 in10.0 miSouth (190°)6.9 mphClear
5:35 PM73.4 °F51.8 °F47 %30.17 in10.0 miSouth (170°)8.1 mphClear
5:55 PM71.6 °F51.8 °F50 %30.17 in10.0 miSouth (170°)5.8 mphClear
6:15 PM69.8 °F51.8 °F53 %30.17 in10.0 miSouth (170°)5.8 mphClear
6:35 PM69.8 °F51.8 °F53 %30.18 in10.0 miSSE (160°)4.6 mphClear
6:55 PM66.2 °F51.8 °F60 %30.18 in10.0 miSSE (160°)4.6 mphClear
7:15 PM66.2 °F51.8 °F60 %30.19 in10.0 miSouth (170°)5.8 mphClear
7:35 PM64.4 °F50.0 °F59 %30.20 in10.0 miSouth (180°)6.9 mphClear
7:55 PM64.4 °F50.0 °F59 %30.20 in10.0 miSouth (190°)9.2 mphClear
8:15 PM64.4 °F50.0 °F59 %30.20 in10.0 miSouth (190°)9.2 mphClear
8:35 PM62.6 °F50.0 °F63 %30.19 in10.0 miSouth (190°)9.2 mphClear
8:55 PM60.8 °F50.0 °F68 %30.20 in10.0 miSouth (190°)8.1 mphClear
9:15 PM60.8 °F50.0 °F68 %30.21 in10.0 miSouth (190°)8.1 mphClear
9:35 PM60.8 °F50.0 °F68 %30.21 in10.0 miSouth (190°)8.1 mphClear
10:15 PM59.0 °F50.0 °F72 %30.22 in10.0 miSouth (190°)6.9 mphClear
10:35 PM57.2 °F50.0 °F77 %30.22 in10.0 miSouth (190°)5.8 mphClear
10:55 PM57.2 °F50.0 °F77 %30.22 in10.0 miSSW (200°)8.1 mphClear
11:15 PM59.0 °F51.8 °F77 %30.22 in10.0 miSSW (200°)10.4 mphClear
11:35 PM60.8 °F51.8 °F72 %30.21 in10.0 miSSW (200°)10.4 mphClear
11:55 PM60.8 °F53.6 °F77 %30.20 in10.0 miSSW (210°)11.5 mphClear
Hourly data recorded from KBBD, located miles away from Marco, Texas







STORIES FROM OUR PARTNERS